Weather History for New River MCAS, NC

Change the Weather History Date:

Sunday, September 29, 2013

  Actual Average Record
Temperature  
Mean Temperature 68 °F -  
Max Temperature 77 °F 77 °F 87 °F (2005)
Min Temperature 59 °F 59 °F 50 °F (2001)
Cooling Degree Days 3    
Growing Degree Days 18 (Base 50)    
Moisture  
Dew Point 59 °F    
Average Humidity 79    
Maximum Humidity 93    
Minimum Humidity 51    
Precipitation  
Precipitation 0.00 in - - ()
Sea Level Pressure  
Sea Level Pressure 30.07 in    
Wind  
Wind Speed 8 mph (North)    
Max Wind Speed 13 mph    
Max Gust Speed 21 mph    
Visibility 10 miles    
Events      
Averages and records for this station are not official NWS values.
T = Trace of Precipitation, MM = Missing Value Source: NWS Daily Summary

Daily Weather History Graph

Daily Weather History Graph

Search for Another Location

Airport:

Trip Planner

Search our weather history database for the weather conditions in past years. The results will help you decide how hot, cold, wet, or windy it might be!

Date:

Astronomy

Sep. 29, 2013 Rise Set
Actual Time 7:03 AM EDT 6:56 PM EDT
Civil Twilight 6:37 AM EDT 7:21 PM EDT
Nautical Twilight 6:08 AM EDT 7:50 PM EDT
Astronomical Twilight 5:39 AM EDT 8:20 PM EDT
Moon 1:53 AM EDT (9/29) 3:41 PM EDT (9/29)
Length of Visible Light 12h 43m
Length of Day
11h 53m
Waning Crescent, 27% of the Moon is Illuminated
Sep 29
Waning Crescent
Oct 4
New
Oct 11
First Quarter
Oct 18
Full
Oct 26
Last Quarter

Hourly Weather History & Observations

Time (EDT) Temp. Dew Point Humidity Pressure Visibility Wind Dir Wind Speed Gust Speed Precip Events Conditions
12:56 AM 61.0 °F 57.9 °F 90% 30.13 in 10.0 mi North 6.9 mph - N/A   Clear
1:56 AM 60.1 °F 57.9 °F 93% 30.12 in 10.0 mi North 5.8 mph - N/A   Clear
2:39 AM 60.1 °F 57.0 °F 90% 30.10 in 10.0 mi North 8.1 mph - N/A   Scattered Clouds
2:56 AM 60.1 °F 57.0 °F 90% 30.11 in 10.0 mi North 10.4 mph - N/A   Mostly Cloudy
3:56 AM 60.1 °F 57.0 °F 90% 30.09 in 10.0 mi North 8.1 mph - N/A   Mostly Cloudy
4:56 AM 59.0 °F 57.0 °F 93% 30.09 in 10.0 mi NNW 9.2 mph - N/A   Mostly Cloudy
5:56 AM 59.0 °F 55.9 °F 90% 30.09 in 10.0 mi North 8.1 mph - N/A   Partly Cloudy
6:56 AM 59.0 °F 55.9 °F 90% 30.10 in 10.0 mi North 9.2 mph - N/A   Overcast
7:56 AM 59.0 °F 55.9 °F 90% 30.11 in 10.0 mi North 9.2 mph - N/A   Mostly Cloudy
8:13 AM 60.1 °F 57.0 °F 90% 30.10 in 10.0 mi NNW 9.2 mph - N/A   Overcast
8:56 AM 61.0 °F 57.0 °F 87% 30.11 in 10.0 mi North 9.2 mph - N/A   Mostly Cloudy
9:06 AM 62.1 °F 57.9 °F 86% 30.10 in 10.0 mi NNW 8.1 mph - N/A   Scattered Clouds
9:53 AM 64.4 °F 59.0 °F 83% 30.10 in 10.0 mi North 10.4 mph - N/A   Mostly Cloudy
9:56 AM 64.9 °F 59.0 °F 81% 30.11 in 10.0 mi North 9.2 mph - N/A   Mostly Cloudy
10:37 AM 68.0 °F 60.1 °F 76% 30.09 in 10.0 mi North 8.1 mph - N/A   Mostly Cloudy
10:56 AM 69.1 °F 60.1 °F 73% 30.10 in 10.0 mi NNW 12.7 mph 20.7 mph N/A   Mostly Cloudy
11:56 AM 69.1 °F 60.1 °F 73% 30.09 in 10.0 mi North 8.1 mph - N/A   Overcast
12:56 PM 72.0 °F 61.0 °F 68% 30.08 in 10.0 mi North 9.2 mph - N/A   Mostly Cloudy
1:19 PM 72.0 °F 61.0 °F 68% 30.06 in 10.0 mi North 10.4 mph - N/A   Mostly Cloudy
1:56 PM 75.0 °F 61.0 °F 62% 30.06 in 10.0 mi North 9.2 mph - N/A   Partly Cloudy
2:56 PM 77.0 °F 60.1 °F 56% 30.02 in 8.0 mi North 8.1 mph - N/A   Partly Cloudy
3:56 PM 77.0 °F 59.0 °F 54% 30.01 in 10.0 mi North 6.9 mph - N/A   Partly Cloudy
4:56 PM 73.9 °F 57.0 °F 55% 30.01 in 10.0 mi NNE 5.8 mph - N/A   Partly Cloudy
5:56 PM 75.0 °F 55.9 °F 51% 30.01 in 10.0 mi North 8.1 mph - N/A   Clear
6:56 PM 72.0 °F 57.0 °F 59% 30.02 in 10.0 mi North 4.6 mph - N/A   Clear
7:56 PM 64.9 °F 60.1 °F 84% 30.02 in 10.0 mi Calm Calm - N/A   Clear
8:56 PM 66.0 °F 60.1 °F 81% 30.04 in 10.0 mi NNE 5.8 mph - N/A   Partly Cloudy
9:56 PM 66.0 °F 62.1 °F 87% 30.04 in 10.0 mi ENE 6.9 mph - N/A   Clear
10:17 PM 66.9 °F 62.1 °F 84% 30.04 in 10.0 mi ENE 6.9 mph - N/A   Mostly Cloudy
10:40 PM 64.9 °F 61.0 °F 87% 30.03 in 10.0 mi NNE 5.8 mph - N/A   Scattered Clouds
10:56 PM 64.0 °F 60.1 °F 87% 30.04 in 10.0 mi NNE 5.8 mph - N/A   Clear
11:56 PM 63.0 °F 59.0 °F 87% 30.03 in 10.0 mi NNE 5.8 mph - N/A   Clear